Regional Weather Roundup
Issued by NWS Midland/Odessa, TX

Skip options and go directly to product.
Home | Oldest Version | Previous Version | Current Version | All | Graphics & Text | Save Text | Print | Product List | Glossary On

Skip product version selection by date and time.   
124
ASUS44 KMAF 242010
RWRMAF
MIDLAND AREA WEATHER ROUNDUP
NATIONAL WEATHER SERVICE MIDLAND TX
300 PM CDT SUN JUL 24 2016

...IN SOUTHWEST TEXAS AND SOUTHEAST NEW MEXICO...

CITY           SKY/WX    TMP DP  RH WIND       PRES   REMARKS
ALPINE         SUNNY     97  49  20 E7        30.11F
ANDREWS        FAIR      97  55  25 SE9G16    30.02F
ARTESIA        SUNNY     99  50  19 VRB7G20   30.00F
BIG SPRING     MOSUNNY   98  61  29 SE13      30.00F
CARLSBAD       MOSUNNY   99  51  19 E7G17     29.97F
DRYDEN           N/A     99  62  29 MISG      29.91F HX 100
FORT STOCKTON  MOSUNNY   98  60  28 SE13G20   29.96F
GUAD PASS      SUNNY     92  46  20 E15G28    30.15F
HOBBS          MOSUNNY   95  52  23 E16G24    30.04F
MARFA          MOSUNNY   94  53  25 NW10      30.10F
MIDLAND AIRPK  MOSUNNY   99  55  22 SE14G20   30.00F
MIDLAND INTL   MOSUNNY   99  57  24 S14G20    29.98F
ODESSA         MOSUNNY   98  57  25 SE16G23   30.00F
PECOS          SUNNY    103  55  20 SE8G18    29.91F HX 101
PRESIDIO       MOCLDY   102  53  19 CALM      29.91F HX 100
SEMINOLE       MOSUNNY   98  53  22 SE9G22    30.03F
SNYDER           N/A     97  62  31 SE9G18    29.99F
WINK           SUNNY    100  58  24 SE9G22    29.94F
$$
...OTHER STATIONS IN TEXAS...

CITY           SKY/WX    TMP DP  RH WIND       PRES   REMARKS
ABILENE        MOSUNNY   98  63  31 SE15      29.96F HX 100
AMARILLO       SUNNY     97  55  24 VRB3      30.05F
AUSTIN         PTSUNNY   98  69  38 SE12      29.91F HX 104
BROWNSVILLE    MOSUNNY   95  75  52 SE16G24   29.89F HX 107
CORPUS CHRISTI PTSUNNY   93  74  53 SE14G22   29.90F HX 103
DALLAS FTW     MOSUNNY   97  69  40 SE8       29.92F HX 103
DEL RIO        MOSUNNY  101  65  30 MISG      29.87F HX 104
EL PASO        MOSUNNY  101  45  15 VRB3      29.98F
HOUSTON INT    MOSUNNY   98  70  40 VRB6      29.91F HX 105
LUBBOCK        PTSUNNY   98  54  22 SE10G18   30.03F
SAN ANGELO     MOSUNNY   99  60  27 VRB3G20   29.94F
SAN ANTONIO    MOSUNNY   97  68  38 S13       29.92F HX 102
WACO           SUNNY     98  65  33 VRB5      29.92F HX 101
WICHITA FALLS  NOT AVBL
$$
...OTHER LOCATIONS IN NEW MEXICO...

CITY           SKY/WX    TMP DP  RH WIND       PRES   REMARKS
ALAMAGORDO     SUNNY    100  45  15 S12G18    29.99F
ALBUQUERQUE    CLOUDY    96  43  16 VRB5      30.10F THUNDER
CANNON AFB     SUNNY     95  54  24 E12G20    30.09F
CLOVIS         SUNNY     95  55  26 SE15      30.10F
HOLLOMAN AFB   MOSUNNY  102  46  15 SE9       29.97F
ROSWELL        SUNNY    101  50  18 SE9       30.00F
RUIDOSO          N/A     86  41  20 E14G23    30.28F
SANTA FE       MOSUNNY   95  42  16 VRB3      30.19F
TRUTH OR CONSE SUNNY     97  42  15 VRB5      30.04F
TUCUMCARI      SUNNY     99  47  17 VRB3      30.04F
$$

USA.gov is the U.S. government's official web portal to all federal, state and local government web resources and services.